FW5697 Weather Reports


time (UTC)temp
C
wind
direction
speed
KPH
gust
KPH
rain 1hr
cm
rain 24hr
cm
rain mn
cm
humidity
%
barometer
mb
20260507091538 18 0 0.0 3.2 0.05 1.30 0.91 97 1011.5
20260507090027 18 0 0.0 6.4 0.03 1.24 0.86 97 1010.3
20260507084532 18 198 1.6 4.8 0.03 1.24 0.86 97 1010.9
20260507083029 18 197 1.6 4.8 0.03 1.24 0.86 97 1011.0
20260507081528 18 0 0.0 3.2 0.03 1.24 0.86 97 1010.4
20260507080029 18 186 1.6 4.8 0.13 1.22 0.84 97 1010.7
20260507074528 18 215 1.6 6.4 0.20 1.22 0.84 96 1010.9
20260507073029 18 184 1.6 4.8 0.23 1.22 0.84 96 1010.8
20260507071528 18 0 0.0 8.0 0.25 1.22 0.84 96 1010.5
20260507070034 18 192 3.2 8.0 0.23 1.09 0.71 96 1010.1
20260507064528 18 213 3.2 9.7 0.23 1.02 0.64 96 1010.5
20260507063041 19 192 3.2 8.0 0.36 0.99 0.61 96 1010.9
20260507061533 19 0 3.2 12.9 0.43 0.97 0.58 95 1011.3
20260507060038 19 189 1.6 8.0 0.41 0.86 0.48 95 1011.1
20260507054526 19 166 4.8 11.3 0.36 0.79 0.41 95 1011.4
20260507053030 19 200 3.2 9.7 0.23 0.64 0.25 95 1012.8
20260507051528 20 217 3.2 8.0 0.13 0.53 0.15 94 1013.1
20260507050034 20 207 3.2 9.7 0.08 0.46 0.08 94 1012.8
20260507044530 20 206 3.2 14.5 0.05 0.43 0.05 93 1012.3
20260507043028 20 198 1.6 6.4 0.08 0.41 0.03 94 1012.5
20260507041530 20 200 1.6 6.4 0.10 0.41 0.03 94 1012.8
20260507040029 20 209 1.6 6.4 0.08 0.38 0.00 94 1012.2
20260507034534 20 0 0.0 4.8 0.38 0.38 0.38 93 1012.2
20260507033030 20 268 1.6 6.4 0.33 0.33 0.33 93 1011.8
20260507031529 21 189 1.6 9.7 0.30 0.30 0.30 92 1012.8
20260507030027 21 210 3.2 9.7 0.30 0.30 0.30 90 1013.0
20260507024530 21 198 1.6 6.4 0.00 0.00 0.00 87 1014.4
20260507023030 22 197 0.0 4.8 0.00 0.00 0.00 86 1012.5
20260507021531 22 197 0.0 3.2 0.00 0.00 0.00 82 1012.5
20260507020039 23 197 0.0 1.6 0.00 0.00 0.00 79 1012.7
20260507014529 23 0 0.0 3.2 0.00 0.00 0.00 77 1012.4
20260507013044 24 0 0.0 3.2 0.00 0.00 0.00 75 1012.9
20260507011530 24 197 0.0 3.2 0.00 0.00 0.00 75 1012.5
20260507010036 24 0 0.0 4.8 0.00 0.00 0.00 74 1012.4
20260507004530 25 204 1.6 6.4 0.00 0.00 0.00 73 1012.5
20260507003029 25 196 3.2 8.0 0.00 0.00 0.00 71 1012.9
20260507001530 25 208 1.6 12.9 0.00 0.00 0.00 70 1012.5
20260507000028 25 211 1.6 6.4 0.00 0.00 0.00 71 1012.5
20260506234535 26 206 1.6 9.7 0.00 0.00 0.00 70 1011.9
20260506233046 26 224 1.6 4.8 0.00 0.00 0.00 69 1012.2
20260506231529 26 0 0.0 6.4 0.00 0.00 0.00 68 1011.6
20260506230029 26 175 3.2 14.5 0.00 0.00 0.00 67 1011.9
20260506224528 26 201 4.8 16.1 0.00 0.00 0.00 67 1012.3
20260506223051 27 188 4.8 12.9 0.00 0.00 0.00 65 1012.3
20260506221530 27 280 3.2 11.3 0.00 0.00 0.00 65 1011.8
20260506220031 27 136 3.2 9.7 0.00 0.00 0.00 66 1011.9
20260506214527 27 207 1.6 16.1 0.00 0.00 0.00 64 1012.1
20260506213027 28 172 1.6 12.9 0.00 0.00 0.00 64 1011.9
20260506211531 28 189 4.8 14.5 0.00 0.00 0.00 61 1012.0
20260506210035 28 219 4.8 9.7 0.00 0.00 0.00 62 1012.2
20260506204534 27 188 4.8 11.3 0.00 0.00 0.00 62 1012.6
20260506203028 27 211 3.2 9.7 0.00 0.00 0.00 62 1012.9
20260506201532 27 194 3.2 12.9 0.00 0.00 0.00 63 1012.9
20260506200038 27 164 4.8 12.9 0.00 0.00 0.00 60 1013.2
20260506194528 27 244 6.4 17.7 0.00 0.00 0.00 59 1013.5
20260506193030 27 240 4.8 14.5 0.00 0.00 0.00 60 1013.7
20260506191527 27 185 4.8 16.1 0.00 0.00 0.00 58 1014.2
20260506190028 27 185 4.8 11.3 0.00 0.00 0.00 61 1014.1
20260506184526 27 156 3.2 14.5 0.00 0.00 0.00 61 1014.5
20260506183033 27 191 4.8 17.7 0.00 0.00 0.00 59 1014.4
20260506181531 27 184 3.2 12.9 0.00 0.00 0.00 62 1014.5
20260506180030 27 217 4.8 14.5 0.00 0.00 0.00 60 1014.5
20260506174527 27 0 3.2 11.3 0.00 0.00 0.00 58 1014.4
20260506173038 26 153 4.8 14.5 0.00 0.00 0.00 56 1014.6
20260506171530 25 198 3.2 9.7 0.00 0.00 0.00 63 1014.7
20260506170027 25 219 3.2 14.5 0.00 0.00 0.00 63 1015.2
20260506164530 25 138 3.2 14.5 0.00 0.00 0.00 65 1015.1
20260506163030 24 239 4.8 12.9 0.00 0.00 0.00 66 1015.4
20260506161531 23 183 3.2 11.3 0.00 0.00 0.00 68 1015.8
20260506160029 22 0 3.2 12.9 0.00 0.00 0.00 70 1015.9
20260506154530 22 248 3.2 11.3 0.00 0.00 0.00 70 1016.0
20260506153029 22 246 4.8 12.9 0.00 0.00 0.00 69 1016.2
20260506151528 22 113 4.8 14.5 0.00 0.00 0.00 69 1015.8
20260506150030 22 190 1.6 9.7 0.00 0.00 0.00 73 1015.8
20260506144531 22 154 4.8 16.1 0.00 0.00 0.00 75 1015.6
20260506143034 21 155 3.2 11.3 0.00 0.00 0.00 78 1015.5
20260506141528 21 198 3.2 12.9 0.00 0.00 0.00 80 1015.2
20260506140028 21 264 4.8 9.7 0.00 0.00 0.00 82 1015.1
20260506134528 20 194 4.8 14.5 0.00 0.00 0.00 82 1014.9
20260506133031 20 249 3.2 12.9 0.00 0.00 0.00 83 1014.9
20260506131533 19 187 1.6 8.0 0.00 0.00 0.00 85 1014.9
20260506130030 18 0 1.6 6.4 0.00 0.00 0.00 85 1015.0
20260506124534 18 172 1.6 8.0 0.00 0.00 0.00 86 1014.8
20260506123037 18 234 1.6 8.0 0.00 0.00 0.00 86 1014.8
20260506121529 17 205 1.6 6.4 0.00 0.00 0.00 86 1014.9
20260506120036 17 0 0.0 3.2 0.00 0.00 0.00 86 1014.7
20260506114530 17 0 0.0 3.2 0.00 0.00 0.00 86 1014.6
20260506113028 17 211 0.0 3.2 0.00 0.00 0.00 86 1014.7
20260506111529 17 0 0.0 3.2 0.00 0.00 0.00 85 1014.4
20260506110028 17 203 0.0 3.2 0.00 0.00 0.00 85 1014.2
20260506104529 17 188 0.0 3.2 0.00 0.00 0.00 85 1013.8
20260506103032 17 221 0.0 3.2 0.00 0.00 0.00 84 1013.4
20260506101530 17 0 1.6 3.2 0.00 0.00 0.00 84 1013.2
20260506100029 17 0 0.0 4.8 0.00 0.00 0.00 83 1013.5
20260506094535 17 0 0.0 4.8 0.00 0.00 0.00 82 1013.3
20260506093041 16 214 1.6 4.8 0.00 0.00 0.00 82 1013.1